Regional Weather Roundup
Issued by NWS

Home | Current Version | Previous Version | Text Only | Print | Product List | Glossary Off
Versions: 1 2 3 4 5 6 7 8 9 10 11 12 13 14 15 16 17 18 19 20 21 22 23 24 25 26 27 28 29 30 31 32 33 34 35 36 37 38 39 40 41 42 43 44 45 46 47 48 49 50

000
ASUS43 KTOP 161108
RWRKS

WEATHER ROUNDUP FOR KANSAS
NATIONAL WEATHER SERVICE GOODLAND KS
600 AM CDT WED APR 16 2014

NOTE:  "FAIR" INDICATES FEW OR NO CLOUDS BELOW 12,000 FEET WITH NO
SIGNIFICANT WEATHER AND/OR OBSTRUCTIONS TO VISIBILITY.

KSZ001>006-013>018-027>032-041>047-161200-
NORTHWEST KANSAS

CITY           SKY/WX    TMP DP  RH WIND       PRES   REMARKS
GOODLAND       CLEAR     43  31  62 NW15      29.68R
HAYS           MOCLDY    46  18  31 S17       29.67F
HILL CITY      PTCLDY    47  15  27 SW10G24   29.63R
RUSSELL        PTCLDY    46  18  32 S28       29.65F
$$

KSZ061>065-074>080-084>089-161200-
SOUTHWEST KANSAS

CITY           SKY/WX    TMP DP  RH WIND       PRES   REMARKS
DODGE CITY     CLEAR     44  15  31 S21G26    29.69F
ELKHART          N/A     43  20  40 SW10        N/A
GARDEN CITY    CLEAR     39  20  46 S10       29.65S WCI  32
GREAT BEND     PTCLDY    46  18  31 S25G32    29.70F
LIBERAL        CLEAR     46  14  27 S17       29.70S
PRATT          PTCLDY    45  19  36 S24G32    29.75F
$$

KSZ066>073-081>083-090>101-161200-
SOUTHEAST KANSAS

CITY           SKY/WX    TMP DP  RH WIND       PRES   REMARKS
CHANUTE        PTCLDY    44  29  55 S15       29.98S
COFFEYVILLE    PTCLDY    44  29  55 S13       30.00S
HUTCHINSON     CLEAR     47  22  37 S23G31    29.80F
MEDICINE LODGE   N/A     47  22  37 S15G24    29.81S
NEWTON         CLEAR     46  19  34 S24       29.87S
PARSONS        PTCLDY    45  28  51 S8        30.01R
WICHITA INTL   MOCLDY    47  24  40 S22G30    29.86S
WICHITA JABRA  PTCLDY    48  24  39 S24G35    29.86F
WICHITA MCCONL CLEAR     48  22  36 SE24G32   29.87F
WINFIELD       PTCLDY    48  25  40 S22G31    29.92F
$$

KSZ007>012-019>026-033>040-048>060-102>105-161200-
NORTHEAST KANSAS

CITY           SKY/WX    TMP DP  RH WIND       PRES   REMARKS
CONCORDIA      PTCLDY    49  20  31 S24G31    29.71F
EMPORIA        CLEAR     44  27  51 S24G36    29.88F
LAWRENCE       CLEAR     45  28  51 S15       29.92F
MANHATTAN      CLEAR     49  25  39 S16G26    29.81F
OLATHE IND     CLEAR     43  26  51 S18G29    29.95S
OLATHE EXE     CLEAR     40  26  57 S13       29.95S WCI  32
SALINA         CLEAR     49  21  33 S22G36    29.76F
TOPEKA BILLARD CLEAR     48  27  44 S13G23    29.89F
TOPEKA FORBES  CLEAR     45  27  49 S16       29.88F
$$



USA.gov is the U.S. government's official web portal to all federal, state and local government web resources and services.